Wetterdaten: aktuell Mittwoch, 17.07.2024 22:18
Datum Zeit Temp. A. Feuchte A. Luftdruck Regen Wind Richtung Richtung Taupunkt Windchill
17.07.2024 22:18 22,6 C 50 % 1016,0 hPa 0,0 l/m 0,0 km/h (0 Bft) N-NO 20 11,6 C 22,6 C
17.07.2024 22:16 22,7 C 49 % 1016,0 hPa 0,0 l/m 0,0 km/h (0 Bft) N-NO 20 11,4 C 22,7 C
17.07.2024 22:14 22,8 C 48 % 1016,0 hPa 0,0 l/m 0,0 km/h (0 Bft) N-NO 20 11,2 C 22,8 C
17.07.2024 22:12 22,8 C 48 % 1016,0 hPa 0,0 l/m 0,0 km/h (0 Bft) N-NO 20 11,2 C 22,8 C
17.07.2024 22:10 22,9 C 50 % 1016,0 hPa 0,0 l/m 0,0 km/h (0 Bft) N-NO 20 11,9 C 22,9 C
17.07.2024 22:08 23,0 C 48 % 1016,0 hPa 0,0 l/m 0,0 km/h (0 Bft) N-NO 20 11,4 C 23,0 C
17.07.2024 22:06 23,0 C 48 % 1016,0 hPa 0,0 l/m 0,0 km/h (0 Bft) N-NO 20 11,4 C 23,0 C
17.07.2024 22:04 23,0 C 47 % 1016,0 hPa 0,0 l/m 0,0 km/h (0 Bft) N-NO 20 11,1 C 23,0 C
17.07.2024 22:02 23,1 C 47 % 1016,0 hPa 0,0 l/m 0,0 km/h (0 Bft) N-NO 20 11,2 C 23,1 C
17.07.2024 22:01 23,1 C 47 % 1016,0 hPa 0,0 l/m 0,0 km/h (0 Bft) N-NO 20 11,2 C 23,1 C
17.07.2024 21:58 23,2 C 47 % 1016,0 hPa 0,0 l/m 0,0 km/h (0 Bft) N-NO 20 11,3 C 23,2 C
17.07.2024 21:56 23,4 C 46 % 1016,0 hPa 0,0 l/m 0,0 km/h (0 Bft) N-NO 20 11,1 C 23,4 C
17.07.2024 21:54 23,4 C 46 % 1016,0 hPa 0,0 l/m 0,0 km/h (0 Bft) N-NO 20 11,1 C 23,4 C
17.07.2024 21:52 23,6 C 43 % 1016,0 hPa 0,0 l/m 0,0 km/h (0 Bft) N-NO 20 10,3 C 23,6 C
17.07.2024 21:50 23,6 C 43 % 1016,0 hPa 0,0 l/m 0,0 km/h (0 Bft) N-NO 20 10,3 C 23,6 C
17.07.2024 21:48 23,6 C 43 % 1016,0 hPa 0,0 l/m 0,0 km/h (0 Bft) N-NO 20 10,3 C 23,6 C
17.07.2024 21:46 23,6 C 42 % 1016,0 hPa 0,0 l/m 0,0 km/h (0 Bft) N-NO 20 9,9 C 23,6 C
17.07.2024 21:44 23,7 C 42 % 1016,0 hPa 0,0 l/m 0,0 km/h (0 Bft) N-NO 20 10,0 C 23,7 C
17.07.2024 21:42 23,7 C 42 % 1016,0 hPa 0,0 l/m 0,0 km/h (0 Bft) N-NO 20 10,0 C 23,7 C
17.07.2024 21:40 23,8 C 41 % 1016,0 hPa 0,0 l/m 0,0 km/h (0 Bft) N-NO 20 9,7 C 23,8 C
17.07.2024 21:38 23,9 C 41 % 1016,0 hPa 0,0 l/m 0,0 km/h (0 Bft) N-NO 20 9,8 C 23,9 C
17.07.2024 21:36 24,0 C 41 % 1016,0 hPa 0,0 l/m 0,0 km/h (0 Bft) N-NO 20 9,9 C 24,0 C
17.07.2024 21:34 24,0 C 41 % 1014,9 hPa 0,0 l/m 0,0 km/h (0 Bft) N-NO 20 9,9 C 24,0 C
17.07.2024 21:32 24,0 C 41 % 1014,9 hPa 0,0 l/m 0,0 km/h (0 Bft) N-NO 20 9,9 C 24,0 C
17.07.2024 21:30 24,1 C 41 % 1014,9 hPa 0,0 l/m 0,0 km/h (0 Bft) N-NO 20 10,0 C 24,1 C
17.07.2024 21:28 24,1 C 41 % 1014,9 hPa 0,0 l/m 0,0 km/h (0 Bft) N-NO 20 10,0 C 24,1 C
17.07.2024 21:26 24,2 C 41 % 1014,9 hPa 0,0 l/m 0,0 km/h (0 Bft) N-NO 20 10,1 C 24,2 C
17.07.2024 21:24 24,2 C 41 % 1014,9 hPa 0,0 l/m 0,0 km/h (0 Bft) N-NO 20 10,1 C 24,2 C
17.07.2024 21:22 24,2 C 41 % 1014,9 hPa 0,0 l/m 0,0 km/h (0 Bft) N-NO 20 10,1 C 24,2 C
17.07.2024 21:20 24,3 C 41 % 1014,9 hPa 0,0 l/m 0,0 km/h (0 Bft) N-NO 20 10,2 C 24,3 C
17.07.2024 21:18 24,4 C 40 % 1014,9 hPa 0,0 l/m 0,0 km/h (0 Bft) N-NO 20 9,9 C 24,4 C
17.07.2024 21:16 24,4 C 40 % 1014,9 hPa 0,0 l/m 0,0 km/h (0 Bft) N-NO 20 9,9 C 24,4 C
17.07.2024 21:14 24,5 C 39 % 1014,9 hPa 0,0 l/m 0,0 km/h (0 Bft) N-NO 20 9,6 C 24,5 C
17.07.2024 21:12 24,5 C 39 % 1014,9 hPa 0,0 l/m 0,0 km/h (0 Bft) N-NO 20 9,6 C 24,5 C
17.07.2024 21:10 24,5 C 39 % 1014,9 hPa 0,0 l/m 0,0 km/h (0 Bft) N-NO 20 9,6 C 24,5 C
17.07.2024 21:08 24,5 C 39 % 1014,9 hPa 0,0 l/m 0,4 km/h (0 Bft) N-NO 20 9,6 C 24,5 C
17.07.2024 21:06 24,6 C 38 % 1014,9 hPa 0,0 l/m 0,3 km/h (0 Bft) N-NO 20 9,3 C 24,6 C
17.07.2024 21:04 24,6 C 38 % 1014,9 hPa 0,0 l/m 0,3 km/h (0 Bft) N-NO 20 9,3 C 24,6 C
17.07.2024 21:02 24,7 C 38 % 1014,9 hPa 0,0 l/m 0,0 km/h (0 Bft) N-NO 20 9,4 C 24,7 C
17.07.2024 21:00 24,8 C 39 % 1014,9 hPa 0,0 l/m 0,0 km/h (0 Bft) N-NO 20 9,9 C 24,8 C
17.07.2024 20:58 24,8 C 39 % 1014,9 hPa 0,0 l/m 0,0 km/h (0 Bft) N-NO 20 9,9 C 24,8 C
_ Min-Zeit 06:38 17:14 00:00 - 00:00 - - 17:14 06:38
Minimum _ 17,5 C 29 % 1011,0 hPa - 0,0 km/h (0 Bft) - - 7,6 C 17,5 C
_ Max-Zeit 17:12 06:34 22:18 00:00 12:10 - - 08:24 17:12
Maximum _ 27,3 C 69 % 1016,0 hPa 0,0 l/m 12,3 km/h
NW (3 Bft)
- - 12,5 C 27,3 C
Durchschnitt _ 22,2 C 50 % 1013,8 hPa #0,0 l/m 2,1 km/h (1 Bft) NW - 10,5 C 22,2 C